User: anonymous
Location: Unspecified
(0.0000°N, 0.0000°E)
Time: 18:04:24
(UTC+00:00)
Language:

OPTUS D1 - Orbit

View from above orbital plane
View from above orbital plane
View from above satellite
View from above satellite

Ground track
Ground track

The orbit data is extracted from the following two-line orbital elements,

1 29495U 06043B   14241.37872870 -.00000121  00000-0  10000-3 0  5609
2 29495 000.0380 293.8979 0002969 219.2706 120.6735 01.00272580 28922
Epoch (UTC): 29 August 2014 09:05:22
Eccentricity: 0.0002969
inclination: 0.0380°
perigee height: 35773 km
apogee height: 35798 km
right ascension of ascending node: 293.8979°
argument of perigee: 219.2706°
revolutions per day: 1.00272580
mean anomaly at epoch: 120.6735°
orbit number at epoch: 2892

The dashed part of the orbit path shows where the satellite is in the earth's shadow,  

DLR